Tracking 27419 objects as of 10-Jun-2023
HD Live streaming from Space Station
objects crossing your sky now

SCOUT G-1 R/B

Track SCOUT G-1 R/B now!
10-day predictions


NORAD ID: 19072
Int'l Code: 1988-033C
Perigee: 1,022.7 km
Apogee: 1,305.7 km
Inclination: 90.3 °
Period: 108.5 minutes
Semi major axis: 7535 km
RCS: 0.767 m2 (medium)
Launch date: April 26, 1988
Source: United States (US)
Launch site: AIR FORCE WESTERN TEST RANGE (AFWTR)

Note: This is a ROCKET BODY
Your satellite tracking list
Your tracking list is empty




NASA's NSSDC Master Catalog

Two Line Element Set (TLE):
1 19072U 88033C   23160.45157216  .00000079  00000-0  14712-3 0  9998
2 19072  90.3185 347.8741 0187756 224.6152 145.9072 13.27281077700538
Source of the keplerian elements: AFSPC